www.pogodaiklimat.ru

Погода и климат >> Архив погоды >> Китай >> Шаньси >> Лиши


ПОГОДА в Лиши

  • Прогноз погоды в Лиши
  • Монитор погоды в Лиши

АРХИВ ПОГОДЫ в Лиши

Время (UTC), дата Ветер
(напр.,м/с)
 
Видим.   Явления Облачность Т
(С)
Тd
(С)
f
(%)
Тe
(С)
Тes
(С)
Комфортность P
(гПа)
Po
(гПа)
Тmin
(С)
Tmax
(С)
R
(мм)
R24
(мм)
S
(см)
21 9.09 С 1 4800 м дымка н/о +18.1 +18.1 100 +19 +19 1012.2 905.3
00 10.09 штиль 0 12 км 10/10
[]
+18.4 +15.1 81 +19 +19 1014.9 907.8 4
03 10.09 З 1 6000 м слаб. дождь 10/10
[]
+18.3 +16.6 90 +20 +20 1015.9 908.7
06 10.09 З 2 16 км {дождь} 10/10
[]
+20.8 +15.6 72 +25 +25 комфорт 1014.2 908.0 +17.4 0.1
09 10.09 Ю 2 8000 м 10/10
[]
+20.7 +14.6 68 +24 +24 комфорт 1014.2 908.0
12 10.09 З 1 6000 м мгла 10/10
[]
+19.9 +15.1 74 +23 +23 комфорт 1015.8 909.2 0.1
18 10.09 В 1 2000 м дождь ?/? +16.8 +16.8 100 +18 +18 1016.2 908.4 +21.6 8
21 10.09 ЮВ 1 6000 м слаб. дождь н/о +16.8 +16.8 100 +18 +18 1014.9 907.3
00 11.09 ЮВ 2 3700 м дождь 10/10
[]
+16.5 +16.2 98 +17 +17 1015.5 907.7 17
03 11.09 В 2 6000 м дождь 10/10
[]
+16.6 +16.0 96 +17 +17 1016.4 908.6
06 11.09 штиль 0 12 км слаб. дождь 10/10
[]
+16.7 +16.5 99 +17 +17 1015.1 907.4 +16.3 20
09 11.09 СВ 1 30 км слаб. дождь 10/10
[]
+16.8 +16.0 95 +18 +18 1014.8 907.2
12 11.09 С 1 30 км в посл. час дождь 10/10
[]
+16.0 +16.0 100 +17 +17 1016.0 908.0 4
18 11.09 СЗ 1 30 км слаб. дождь ?/? +16.1 +15.5 96 +17 +17 1014.9 907.0 +17.0 0.4
21 11.09 С 1 30 км н/о +16.3 +15.5 95 +17 +17 1013.7 906.0
00 12.09 С 1 27 км 10/10
[]
+16.9 +15.9 94 +18 +18 1014.1 906.6 0.4
03 12.09 В 1 30 км 9/9
[]
+21.5 +16.2 72 +25 +27 комфорт 1012.9 907.1
06 12.09 ЮЗ 3 30 км 10/10
[]
+23.7 +17.2 67 +28 +28 душно 1009.3 904.6 +15.9
09 12.09 Ю 1 12 км слаб. дождь 10/10
[]
+20.6 +17.4 82 +25 +25 комфорт 1009.9 904.1
12 12.09 штиль 0 3500 м дождь 10/10
[]
+18.4 +18.4 100 +19 +19 1010.8 904.2 10
18 12.09 З 2 21 км слаб. дождь ?/? +15.0 +15.0 100 +15 +15 1014.2 906.0 +24.6 21
21 12.09 З 2 23 км слаб. дождь ?/? +14.4 +14.4 100 +14 +14 1016.5 907.9
00 13.09 ЮЗ 2 30 км 10/10
[]
+14.3 +14.0 98 +14 +14 1018.1 909.3 5
03 13.09 З 3 30 км 10/10
[]
+15.5 +12.4 82 +15 +15 1019.8 911.2
06 13.09 З 3 26 км 10/10
[]
+16.8 +11.9 73 +17 +17 1018.9 910.9 +13.9
09 13.09 З 2 24 км 10/10
[]
+17.5 +12.0 70 +18 +18 1019.2 911.4
12 13.09 ЮЗ 1 18 км 10/10
[]
+16.0 +13.5 85 +17 +17 1021.0 912.5
18 13.09 С 1 н/о дымка ?/? +14.3 +13.3 94 +15 +15 1021.3 912.1 +17.5
21 13.09 С 1 н/о дымка н/о +13.6 +13.4 99 +14 +14 1020.7 911.3
00 14.09 С 2 16 км 10/10
[]
+14.2 +12.6 90 +14 +14 1021.1 911.9
03 14.09 З 1 23 км 10/10
[]
+16.6 +11.5 72 +17 +17 1020.8 912.5
06 14.09 З 1 21 км 10/10
[]
+17.9 +13.0 73 +19 +19 1018.7 911.1 +13.5
09 14.09 З 5 16 км 10/10
[]
+17.6 +12.9 74 +17 +17 1018.8 911.1
12 14.09 ЮЗ 2 17 км 10/10
[]
+15.6 +13.4 87 +15 +15 1020.1 911.5
18 14.09 С 1 15 км ?/? +13.0 +13.0 100 +13 +13 1019.4 910.0 +18.2
21 14.09 СВ 2 15 км н/о +12.9 +12.3 96 +12 +12 1019.2 909.7
00 15.09 штиль 0 17 км 10/10
[]
+13.6 +11.5 87 +13 +13 1019.8 910.5
03 15.09 ЮЗ 2 21 км 9/9
[]
+18.1 +12.3 69 +19 +20 1018.6 911.0
06 15.09 З 3 30 км 9/9 600 м
[]
+21.5 +13.4 60 +24 +25 комфорт 1015.9 909.8 +12.8
09 15.09 С 2 30 км 8/8 600 м
[]
+22.6 +11.7 50 +25 +25 комфорт 1015.5 909.8
12 15.09 СЗ 1 30 км ясно +17.7 +14.2 80 +19 +19 1017.6 910.0
18 15.09 С 1 27 км ?/? +12.6 +12.1 97 +12 +12 1018.4 908.9 +23.2
21 15.09 СВ 2 17 км н/о +11.1 +10.6 97 +10 +10 1018.5 908.5
00 16.09 В 1 15 км 3/3
[]
+11.7 +9.1 84 +12 +13 1020.6 910.5
03 16.09 В 1 24 км 3/3
[]
+19.2 +8.8 51 +21 +31 комфорт 1018.3 911.2
06 16.09 З 3 30 км 8/8 600 м
[]
+24.6 +9.4 38 +25 +27 комфорт 1015.2 910.2 +10.6
09 16.09 СЗ 2 30 км 9/9 600 м
[]
+23.6 +10.0 42 +25 +25 комфорт 1014.8 909.5
12 16.09 С 1 25 км 5/5 600 м
[]
+18.6 +12.1 66 +20 +20 1016.6 909.4
18 16.09 СВ 2 26 км ?/? +15.5 +11.3 76 +15 +15 1017.2 908.9 +25.1

 

Местоположение метеостанции Лиши (Шаньси, Китай): широта 37.50 долгота 111.10 высота над уровнем моря 951 м.

В архиве по умолчанию представлена погода в Лиши за последнюю неделю. Архивные данные за месяц целиком и за предыдущие месяцы, начиная с января 2011 года, Вы можете получить, выбрав интересующий диапазон дат из раскрывающегося списка и нажав кнопку "Ввод!".


*Определитесь, кто Вы:
робот инопланетянин человек

Внимание! Время в таблицах - всемирное. Для получения местного времени необходимо прибавить поправку, которая равна 8 ч.

Смотрите также архив погоды в соседних городах и на ближайших метеорологических станциях:

Погода в Цзесю (Шаньси, Китай) (89 км)
Погода в Тайюанье (Шаньси, Китай) (131 км)
Погода в Юйлине (Гуанси-Чжуанский автономный район, Китай) (147 км)
Погода в Юйшэ (Шаньси, Китай) (173 км)
Погода в Яньане (Шэньси, Китай) (174 км)
Погода в Юаньпине (Шаньси, Китай) (197 км)
Погода в Хэцюе (Шаньси, Китай) (209 км)
Погода в Яньчэне (Цзянсу, Китай) (253 км)
Погода на Утайшане (Шаньси, Китай) (265 км)
Погода в Юньчэне (Шаньси, Китай) (273 км)

Пояснения к столбцам:

Ветер - указаны скорость ветра в м/с - средняя за 10 мин, порывы в срок и между сроками (в фигурных скобках) и направление, откуда дует ветер: С - северный, СВ - северо-восточный, В - восточный, ЮВ - юго-восточный, Ю - южный, ЮЗ - юго-западный, З - западный, СЗ - северо-западный.
Видимость - горизонтальная дальность видимости в метрах или километрах. При видимости от 1 до 10 км при отсутствии осадков обычно наблюдается дымка, при ухудшении видимости до 1 км и менее - туман. В сухую погоду видимость может ухудшаться дымом, пылью или мглою.
Явления - указаны атмосферные явления, наблюдавшиеся в срок или в последний час перед сроком; фигурными скобками обозначены явления, наблюдавшиеся между сроками (за 1-3 часа до срока); квадратными скобками обозначены град или гололедные отложения с указанием их диаметра в мм.
Облачность - указаны через наклонную черту общая и нижняя облачность в баллах и высота нижней границы облаков в метрах; квадратными скобками обозначены формы облаков: Ci - перистые, Cs - перисто-слоистые, Cc - перисто-кучевые, Ac - высококучевые, As - высокослоистые, Sc - слоисто-кучевые, Ns - слоисто-дождевые, Cu - кучевые, Cb - кучево-дождевые. Подробнее классификацию облаков см. в Атласе облаков (PDF).
T - Температура воздуха - температура, измеренная на высоте 2 м над землей.
Td - Температура точки росы - температура, при понижении до которой содержащийся в воздухе водяной пар достигнет насыщения.
f - Относительная влажность воздуха - влажноcть воздуха, измеренная на высоте 2 м над землей.
Te - Эффективная температура - температура, которую ощущает одетый по сезону человек в тени. Характеристика душности погоды. При расчете учитывается влияние влажности воздуха и скорости ветра на теплоощущения человека.
Tes - Эффективная температура на солнце - температура, которую ощущает человек, с поправкой на солнечный нагрев. Характеристика знойности погоды. Зависит от высоты солнца над горизонтом, облачности и скорости ветра. Ночью, в пасмурную погоду, а также при ветре 12 м/с и более поправка равна нулю.
P - Атмосферное давление - приведенное к уровню моря атмосферное давление.
Po - Атмосферное давление - измеренное на уровне метеостанции атмосферное давление.
Tmin - Минимальная температура - минимум температуры воздуха на высоте 2 м над землей.
Tmax - Максимальная температура - максимум температуры воздуха на высоте 2 м над землей.
R - Количество осадков - Количество выпавших осадков за период времени, мм. При наведении курсора мыши на число - период времени, за который выпало указанное количество осадков.
R24 - Количество осадков - Количество выпавших осадков за 24 часа, мм.
S - Снежный покров - Высота снежного покрова, см. При наведении курсора мыши на число - состояние снежного покрова и степень покрытия местности в баллах.